Terminal Aerodrome Forecast
Issued by NWS Twin Cities, MN

Home | Current Version | Previous Version | Graphics & Text | Print | Product List | Glossary On
Versions: 1 2 3 4 5 6 7 8 9 10 11 12 13 14 15 16 17 18 19 20 21 22 23 24
000
FTUS43 KMPX 160520
TAFMSP
TAF
KMSP 160520Z 1606/1712 25003KT P6SM BKN100
     FM160700 25004KT P6SM FEW150
     FM161400 22006KT P6SM SCT250
     FM161900 21010KT P6SM FEW250
     FM162300 18009KT P6SM FEW250=

USA.gov is the U.S. government's official web portal to all federal, state and local government web resources and services.